Tracking 30995 objects as of 5-Jul-2025
HD Live streaming from Space Station
objects crossing your sky now

OBJECT F

Track OBJECT F now!
10-day predictions


NORAD ID: 47859
Int'l Code: 2021-020F
Perigee: 993.6 km
Apogee: 1,205.3 km
Inclination: 63.4 °
Period: 107.1 minutes
Semi major axis: 7470 km
RCS: Unknown
Launch date: March 13, 2021
Source: People's Republic of China (PRC)
Launch site: Jiuquan Satellite Launch Center, China (JSC)
Your satellite tracking list
TECHEDSAT 13
Track 1 satellite(s)




NASA's NSSDC Master Catalog

Two Line Element Set (TLE):
1 47859U 21020F   25186.84427259 -.00000037  00000-0  85854-4 0  9996
2 47859  63.4094  74.6511 0141635   1.0912 359.0396 13.44568444211831
Source of the keplerian elements: AFSPC